Fairfield, IL

12:59 AM CST on December 12, 2019 (GMT -0600)
Fairfield Municipal

Weather History for KFWC - October, 2019

Change the Weather History Date:

Wednesday, October 16, 2019

  Actual Average (WUND) Record (WUND)
Temperature  
Mean Temperature 50 °F -  
Max Temperature 56 °F - - (-1)
Min Temperature 41 °F - - (-1)
Degree Days  
Heating Degree Days 16    
Moisture  
Dew Point 38 °F    
Average Humidity 67    
Maximum Humidity 86    
Minimum Humidity 54    
Precipitation  
Precipitation 0.00 in - - ()
Sea Level Pressure  
Sea Level Pressure 30.02 in    
Wind  
Wind Speed 4 mph ()    
Max Wind Speed 8 mph    
Max Gust Speed -    
Visibility 10.0 miles    
Events      
Averages and records for this station are not official NWS values.
T = Trace of Precipitation, MM = Missing Value Source: Averaged Metar Reports

Daily Weather History Graph

Daily Weather History Graph

Search for Another Location

Airport or City:

Astronomy

Oct. 16, 2019 Rise Set
Actual Time 7:03 AM CDT 6:14 PM CDT
Civil Twilight 6:36 AM CDT 6:41 PM CDT
Nautical Twilight 6:05 AM CDT 7:11 PM CDT
Astronomical Twilight 5:35 AM CDT 7:42 PM CDT
Moon 8:09 PM CDT (10/16) 9:32 AM CDT (10/16)
Length of Visible Light 12h 04m
Length of Day
11h 11m
Waning Gibbous, 92% of the Moon is Illuminated
Oct 16
Waning Gibbous
Oct 21
Last Quarter
Oct 27
New
Nov 4
First Quarter
Nov 12
Full

Hourly Weather History & Observations

Time (CDT) Temp. Windchill Dew Point Humidity Pressure Visibility Wind Dir Wind Speed Gust Speed Precip Events Conditions
12:15 AM 58.6 °F - 41.9 °F 54% 29.89 in 10.0 mi NW 6.9 mph - N/A   Overcast
12:35 AM 57.9 °F - 42.1 °F 56% 29.90 in 10.0 mi NNW 6.9 mph - N/A   Overcast
12:55 AM 56.8 °F - 42.6 °F 59% 29.92 in 10.0 mi NW 5.8 mph - N/A   Overcast
1:15 AM 55.2 °F - 40.8 °F 58% 29.92 in 10.0 mi NW 4.6 mph - N/A   Overcast
1:35 AM 52.9 °F - 37.8 °F 56% 29.93 in 10.0 mi NNW 6.9 mph - N/A   Scattered Clouds
1:55 AM 51.4 °F - 37.4 °F 59% 29.93 in 10.0 mi NNW 5.8 mph - N/A   Clear
2:15 AM 50.9 °F - 37.4 °F 60% 29.94 in 10.0 mi Calm Calm - N/A   Clear
2:35 AM 50.2 °F - 37.6 °F 62% 29.94 in 10.0 mi Calm Calm - N/A   Clear
2:55 AM 49.1 °F - 37.8 °F 65% 29.94 in 10.0 mi WNW 4.6 mph - N/A   Clear
3:15 AM 48.4 °F - 37.9 °F 67% 29.94 in 10.0 mi WNW 4.6 mph - N/A   Clear
3:35 AM 47.8 °F - 37.9 °F 69% 29.94 in 10.0 mi NW 3.5 mph - N/A   Clear
3:55 AM 47.7 °F - 37.8 °F 69% 29.93 in 10.0 mi NW 3.5 mph - N/A   Clear
4:15 AM 47.1 °F - 37.8 °F 70% 29.94 in 10.0 mi WNW 4.6 mph - N/A   Clear
4:35 AM 46.6 °F - 37.8 °F 71% 29.94 in 10.0 mi NW 3.5 mph - N/A   Clear
4:55 AM 46.4 °F 44.3 °F 37.8 °F 72% 29.94 in 10.0 mi NW 4.6 mph - N/A   Clear
5:15 AM 45.9 °F - 37.4 °F 72% 29.96 in 10.0 mi Calm Calm - N/A   Clear
5:35 AM 45.5 °F 42.5 °F 37.4 °F 73% 29.96 in 10.0 mi WNW 5.8 mph - N/A   Clear
5:55 AM 45.0 °F - 37.4 °F 75% 29.97 in 10.0 mi Calm Calm - N/A   Clear
6:15 AM 44.6 °F 41.4 °F 37.4 °F 76% 29.97 in 10.0 mi NW 5.8 mph - N/A   Clear
6:35 AM 44.2 °F 42.7 °F 37.2 °F 76% 29.96 in 10.0 mi NW 3.5 mph - N/A   Clear
6:55 AM 43.7 °F 42.1 °F 37.0 °F 77% 29.97 in 10.0 mi WNW 3.5 mph - N/A   Clear
7:15 AM 43.3 °F 41.7 °F 37.2 °F 79% 29.99 in 10.0 mi WNW 3.5 mph - N/A   Clear
7:55 AM 44.1 °F 42.5 °F 37.6 °F 78% 29.99 in 10.0 mi NW 3.5 mph - N/A   Clear
8:15 AM 44.8 °F 41.6 °F 37.6 °F 76% 30.00 in 10.0 mi NW 5.8 mph - N/A   Clear
8:35 AM 45.5 °F 43.2 °F 37.8 °F 74% 30.02 in 10.0 mi WNW 4.6 mph - N/A   Clear
8:55 AM 46.6 °F - 38.1 °F 72% 30.02 in 10.0 mi NW 4.6 mph - N/A   Clear
9:15 AM 47.5 °F - 38.3 °F 70% 30.03 in 10.0 mi NW 4.6 mph - N/A   Clear
9:35 AM 48.7 °F - 38.5 °F 68% 30.03 in 10.0 mi NNW 4.6 mph - N/A   Clear
9:55 AM 49.5 °F - 37.9 °F 65% 30.04 in 10.0 mi NW 8.1 mph - N/A   Scattered Clouds
10:15 AM 50.4 °F - 38.5 °F 64% 30.04 in 10.0 mi NNW 4.6 mph - N/A   Mostly Cloudy
10:35 AM 50.5 °F - 37.9 °F 62% 30.04 in 10.0 mi NNW 6.9 mph - N/A   Mostly Cloudy
10:55 AM 50.5 °F - 37.9 °F 62% 30.04 in 10.0 mi NNW 5.8 mph - N/A   Overcast
11:15 AM 51.6 °F - 37.6 °F 59% 30.04 in 10.0 mi NW 5.8 mph - N/A   Mostly Cloudy
11:35 AM 52.0 °F - 37.8 °F 58% 30.05 in 10.0 mi NW 5.8 mph - N/A   Mostly Cloudy
11:55 AM 53.2 °F - 37.9 °F 56% 30.04 in 10.0 mi NW 4.6 mph - N/A   Overcast
12:15 PM 53.1 °F - 37.4 °F 55% 30.04 in 10.0 mi WNW 5.8 mph - N/A   Overcast
12:35 PM 52.7 °F - 37.6 °F 56% 30.04 in 10.0 mi NW 3.5 mph - N/A   Overcast
12:55 PM 52.9 °F - 37.6 °F 56% 30.04 in 10.0 mi WNW 3.5 mph - N/A   Overcast
1:15 PM 53.4 °F - 37.6 °F 55% 30.04 in 10.0 mi NW 6.9 mph - N/A   Overcast
1:35 PM 53.8 °F - 38.1 °F 55% 30.04 in 10.0 mi NW 4.6 mph - N/A   Overcast
1:55 PM 52.9 °F - 37.2 °F 55% 30.04 in 10.0 mi NW 3.5 mph - N/A   Overcast
2:15 PM 52.9 °F - 37.8 °F 56% 30.04 in 10.0 mi NNW 5.8 mph - N/A   Overcast
2:35 PM 52.9 °F - 37.6 °F 56% 30.04 in 10.0 mi NNW 4.6 mph - N/A   Overcast
2:55 PM 52.5 °F - 36.9 °F 55% 30.05 in 10.0 mi WNW 4.6 mph - N/A   Overcast
3:15 PM 52.2 °F - 37.4 °F 57% 30.05 in 10.0 mi WNW 4.6 mph - N/A   Overcast
3:35 PM 52.0 °F - 37.4 °F 58% 30.06 in 10.0 mi West 6.9 mph - N/A   Overcast
3:55 PM 52.0 °F - 37.2 °F 57% 30.06 in 10.0 mi NW 3.5 mph - N/A   Overcast
4:15 PM 51.8 °F - 37.4 °F 58% 30.07 in 10.0 mi Calm Calm - N/A   Overcast
4:35 PM 51.8 °F - 37.6 °F 58% 30.07 in 10.0 mi WNW 3.5 mph - N/A   Overcast
4:55 PM 52.2 °F - 37.9 °F 58% 30.06 in 10.0 mi WNW 3.5 mph - N/A   Overcast
5:15 PM 52.0 °F - 38.1 °F 59% 30.06 in 10.0 mi Calm Calm - N/A   Overcast
5:35 PM 51.1 °F - 37.8 °F 60% 30.06 in 10.0 mi WNW 3.5 mph - N/A   Mostly Cloudy
5:55 PM 50.9 °F - 37.8 °F 61% 30.07 in 10.0 mi Calm Calm - N/A   Overcast
6:15 PM 50.2 °F - 38.5 °F 64% 30.07 in 10.0 mi Calm Calm - N/A   Overcast
6:35 PM 49.3 °F - 38.5 °F 66% 30.07 in 10.0 mi Calm Calm - N/A   Mostly Cloudy
6:55 PM 48.6 °F - 39.2 °F 70% 30.08 in 10.0 mi Calm Calm - N/A   Overcast
7:15 PM 48.2 °F - 41.0 °F 76% 30.08 in 10.0 mi Calm Calm - N/A   Overcast
7:35 PM 48.2 °F - 41.4 °F 77% 30.09 in 10.0 mi Calm Calm - N/A   Overcast
7:55 PM 47.3 °F - 42.3 °F 83% 30.09 in 10.0 mi Calm Calm - N/A   Overcast
8:15 PM 47.3 °F - 43.0 °F 85% 30.09 in 10.0 mi Calm Calm - N/A   Overcast
8:35 PM 48.4 °F - 40.1 °F 73% 30.09 in 10.0 mi Calm Calm - N/A   Overcast
8:55 PM 47.5 °F - 39.2 °F 73% 30.09 in 10.0 mi Calm Calm - N/A   Mostly Cloudy
9:15 PM 46.9 °F - 38.3 °F 72% 30.09 in 10.0 mi Calm Calm - N/A   Scattered Clouds
9:35 PM 46.4 °F - 37.4 °F 71% 30.09 in 10.0 mi Calm Calm - N/A   Mostly Cloudy
9:55 PM 44.8 °F - 37.4 °F 75% 30.08 in 10.0 mi Calm Calm - N/A   Scattered Clouds
10:15 PM 43.5 °F - 37.4 °F 79% 30.08 in 10.0 mi Calm Calm - N/A   Clear
10:35 PM 43.7 °F - 37.2 °F 78% 30.08 in 10.0 mi Calm Calm - N/A   Clear
10:55 PM 43.5 °F - 36.9 °F 77% 30.08 in 10.0 mi Calm Calm - N/A   Clear
11:15 PM 41.7 °F - 37.0 °F 83% 30.08 in 10.0 mi Calm Calm - N/A   Clear
11:35 PM 41.4 °F - 36.9 °F 84% 30.07 in 10.0 mi Calm Calm - N/A   Clear
11:55 PM 41.2 °F - 37.2 °F 86% 30.07 in 10.0 mi Calm Calm - N/A   Clear